{"data":{"norad_id":67540,"intl_designator":"2026-014J","name":"STARLINK-36585","alt_names":[],"object_type":"PAYLOAD","status":"ACTIVE","operator":null,"country":"US","launch_date":"2026-01-22","launch_site_code":"AFWTR","launch_vehicle":null,"mission":null,"orbit_class":"UNKNOWN","rcs_meters":null,"size_class":null,"mass_kg":null,"dimensions":null,"purposes":["comms"],"wikipedia_slug":null,"has_3d_model":false,"image_url":null,"decayed_at":null,"tle_current":{"epoch":"2026-09-19T22:42:27.179424Z","epoch_age_seconds":120147,"freshness":"FRESH","line1":"1 67540U 26014J   26262.94614791  .00012760  00000+0  39683-3 0  9991","line2":"2 67540  97.2833 148.3210 0001861  95.2144 264.9312 15.33449584 38550","mean_motion":15.33449584,"eccentricity":0.0001861,"inclination_deg":97.2833,"raan_deg":148.321,"arg_perigee_deg":95.2144,"mean_anomaly_deg":264.9312,"bstar":0.00039683,"rev_number":3855,"period_min":93.905923939394,"perigee_km":464.25592941092,"apogee_km":466.80314209553,"semimajor_km":6843.6665357532,"source":"CELESTRAK","updated_at":"2026-09-20T09:00:43.567897Z"}}}